OPS 4682 DEB, 38397

Orbit data source: Space-Track

OPS 4682 DEB, 38397 is space debris in LEO originally from a launch on Sat, 03 Apr 1965 UTC launched from the Air Force Western Test Range (AFWTR). Debris objects in space refer to the collection of defunct objects orbiting the Earth. Examples of debris include non-operational satellites, rocket bodies, and fragments generated from explosions, collisions, or faulty payload assembly.

Loading next visibility...
Identifier
38397, 1965-027DA
Orbit
LEO
Country
Flag of USUS
Related business
Manufacturer
Unknown
Mission
Spacecraft
Bus & Motor
Unknown
Mass
Unknown
Launch date (UTC)
1965-04-03 (61 years ago)
Launch vehicle
Unknown
Launch site
Air Force Western Test Range (AFWTR)
Object type
Payload
Rocket body
Debris
Shape & HBR
Unknown shape, 0.1 m
Radar Cross Section
Small (<0.1 m²)

Expand to show TLE details & history
Last TLE update: 3 days ago

TLE from 3 days ago
0 OPS 4682 DEB
1 38397U 65027DA  25299.19752673  .00001000  00000-0  32911-2 0  9996
2 38397  90.2511  12.1892 0041695 153.3824 206.9451 12.99884405632451
Epoch: 2025-10-26T04:44Z
TLE epoch observation values (Epoch: 2025-10-26T04:44:26.309Z)
Latitude
-0.00002°
Longitude
-93.7376°
Altitude
1,293.855 km
Speed
7.196 km/s
True Right ascension
00h 48m 45s
True Declination
0° 00' 00"
Sunlit
Object was in full shadow at epoch
Visualization orbit readout
Latitude
Unknown
Longitude
Unknown
Altitude
Unknown
Speed
Unknown
Apparent Right ascension
Unknown
Apparent Declination
Unknown
Sunlit
N/A
Visualization observer readout
Local Sidereal Time
21:15:41
Azimuth
Unknown
Elevation
Unknown
Doppler factor
Unknown
Orbital elements
Apogee altitude
1,291.513 km
Perigee altitude
1,227.821 km
Semi-major axis
7,637.804 km
Eccentricity
0.00417
Inclination
90.2511°
RAAN
12.1892°
Arg. of periapsis
153.3824°
True anomaly
206.7296°
Mean anomaly
206.9451°
Eccentric anomaly
206.83725°
Mean motion
3.25155 °/min
Orbital period
110.72 mins
BSTAR
0.0032911
Loading maneuver chart data...
Computing Atmospheric mass density...
Loading historical data...
Loading historical data...
Loading historical data...
Loading historical data...
Loading historical data...
Loading historical data...
Loading historical data...

Documentation

Showing up to 5 results
|